Location: Gro�bocka
(50.8204°N, 11.9702°E)
Time: 07:01:21
(UTC+00:00)

CZ-4 R/B - Pass Details

Date: 29 October 2020
Orbit: 532 x 598 km, 97.7° (Epoch: 01 December)

Event Time Altitude Azimuth Distance (km) Brightness Sun altitude
Rises 19:00:43 0° 215° (SW) 2,694 5.1 -30.2°
Reaches altitude 10° 19:03:59 10° 246° (WSW) 1,798 4.5 -30.7°
Maximum altitude 19:05:40 12° 272° (W) 1,644 4.5 -30.9°
Drops below altitude 10° 19:07:22 10° 298° (WNW) 1,798 4.8 -31.2°
Sets 19:10:39 0° 328° (NNW) 2,692 5.5 -31.7°
